Oceanside, CA

8:28 PM PST on December 04, 2016 (GMT -0800)
Oceanside Municipal

Weather History for KOKB - March, 2013

Change the Weather History Date:

Wednesday, March 20, 2013

  Actual Average Record
Temperature  
Mean Temperature 58 °F 56 °F  
Max Temperature 68 °F 65 °F 74 °F (2001)
Min Temperature 48 °F 46 °F 37 °F (2002)
Degree Days  
Heating Degree Days 7 9  
Month to date heating degree days 147 195  
Since 1 July heating degree days 1545 1603  
Cooling Degree Days 0 0  
Month to date cooling degree days 0 0  
Year to date cooling degree days 0 0  
Growing Degree Days 7 (Base 50)    
Moisture  
Dew Point 52 °F    
Average Humidity 80    
Maximum Humidity 96    
Minimum Humidity 63    
Precipitation  
Precipitation 0.00 in 0.04 in 1.01 in (2011)
Month to date precipitation 0.10 1.80  
Year to date precipitation 1.74 7.52  
Since 1 July precipitation 5.58  
Snow  
Snow 0.00 in - - ()
Month to date snowfall 0.0  
Year to date snowfall 0.0  
Snow Depth 0.00 in    
Sea Level Pressure  
Sea Level Pressure 30.03 in    
Wind  
Wind Speed 3 mph (WSW)    
Max Wind Speed 13 mph    
Max Gust Speed 18 mph    
Visibility 5 miles    
Events      
T = Trace of Precipitation, MM = Missing Value Source: NWS Daily Summary

Daily Weather History Graph

Daily Weather History Graph

Search for Another Location

Airport or City:

Trip Planner

Search our weather history database for the weather conditions in past years. The results will help you decide how hot, cold, wet, or windy it might be!

Date:

Astronomy

Mar. 20, 2013 Rise Set
Actual Time 6:52 AM PDT 7:01 PM PDT
Civil Twilight 6:27 AM PDT 7:26 PM PDT
Nautical Twilight 5:59 AM PDT 7:54 PM PDT
Astronomical Twilight 5:30 AM PDT 8:24 PM PDT
Moon 12:56 PM PDT (3/20) 2:19 AM PDT (3/20)
Length of Visible Light 12h 58m
Length of Day
12h 08m
First Quarter, 60% of the Moon is Illuminated
Mar 20
First Quarter
Mar 27
Full
Apr 2
Last Quarter
Apr 10
New
Apr 18
First Quarter

Hourly Weather History & Observations

Time (PDT) Temp. Dew Point Humidity Pressure Visibility Wind Dir Wind Speed Gust Speed Precip Events Conditions
12:52 AM 55.0 °F 52.0 °F 89% 30.09 in 5.0 mi Calm Calm - N/A   Overcast
1:52 AM 55.0 °F 52.0 °F 89% 30.07 in 5.0 mi NNE 3.5 mph - N/A   Overcast
2:52 AM 54.0 °F 52.0 °F 93% 30.05 in 4.0 mi Calm Calm - N/A   Overcast
3:19 AM 53.6 °F 51.8 °F 94% 30.04 in 3.0 mi Calm Calm - N/A   Scattered Clouds
3:31 AM 53.6 °F 51.8 °F 94% 30.04 in 2.5 mi Calm Calm - N/A   Clear
3:45 AM 53.6 °F 51.8 °F 94% 30.04 in 4.0 mi Calm Calm - N/A   Clear
3:52 AM 53.1 °F 51.1 °F 93% 30.04 in 3.0 mi Calm Calm - N/A   Clear
4:13 AM 51.8 °F 48.2 °F 88% 30.02 in 2.5 mi Calm Calm - N/A   Scattered Clouds
4:36 AM 51.8 °F 50.0 °F 94% 30.03 in 3.0 mi Calm Calm - N/A   Partly Cloudy
4:52 AM 52.0 °F 50.0 °F 93% 30.04 in 4.0 mi Calm Calm - N/A   Clear
5:52 AM 51.1 °F 48.9 °F 92% 30.04 in 5.0 mi Calm Calm - N/A   Clear
6:52 AM 48.9 °F 46.9 °F 93% 30.04 in 4.0 mi Calm Calm - N/A   Clear
7:13 AM 48.2 °F 46.4 °F 93% 30.04 in 2.5 mi Calm Calm - N/A   Clear
7:29 AM 50.0 °F 48.2 °F 94% 30.05 in 3.0 mi Calm Calm - N/A   Clear
7:40 AM 50.0 °F 48.2 °F 94% 30.05 in 2.5 mi Calm Calm - N/A   Clear
7:47 AM 50.0 °F 48.2 °F 94% 30.05 in 3.0 mi Calm Calm - N/A   Clear
7:52 AM 51.1 °F 48.9 °F 92% 30.05 in 2.5 mi Calm Calm - N/A   Clear
8:05 AM 53.6 °F 50.0 °F 88% 30.05 in 3.0 mi Calm Calm - N/A   Clear
8:52 AM 57.9 °F 51.1 °F 78% 30.06 in 5.0 mi Calm Calm - N/A   Haze
9:52 AM 64.0 °F 53.1 °F 67% 30.06 in 7.0 mi Calm Calm - N/A   Clear
10:52 AM 62.1 °F 55.0 °F 78% 30.06 in 6.0 mi West 8.1 mph - N/A   Haze
11:52 AM 63.0 °F 55.0 °F 75% 30.07 in 6.0 mi West 5.8 mph - 0.00 in   Haze
12:52 PM 66.9 °F 54.0 °F 63% 30.06 in 8.0 mi WSW 5.8 mph - N/A   Clear
1:52 PM 64.0 °F 53.1 °F 67% 30.04 in 8.0 mi WSW 8.1 mph - N/A   Clear
2:52 PM 64.0 °F 54.0 °F 70% 30.02 in 8.0 mi WSW 6.9 mph - N/A   Clear
3:52 PM 62.1 °F 54.0 °F 75% 30.01 in 7.0 mi West 4.6 mph - N/A   Clear
4:52 PM 62.1 °F 55.0 °F 78% 30.01 in 6.0 mi West 9.2 mph - N/A   Haze
5:52 PM 60.1 °F 55.0 °F 83% 30.01 in 7.0 mi Variable 5.8 mph - N/A   Partly Cloudy
7:08 PM 57.2 °F 53.6 °F 88% 30.00 in 6.0 mi WSW 5.8 mph - N/A   Partly Cloudy
7:52 PM 57.9 °F 54.0 °F 87% 30.00 in 7.0 mi WSW 3.5 mph - N/A   Partly Cloudy
8:06 PM 57.2 °F 53.6 °F 88% 30.00 in 6.0 mi SW 4.6 mph - N/A   Mostly Cloudy
8:29 PM 57.2 °F 53.6 °F 88% 29.99 in 7.0 mi SW 4.6 mph - N/A   Scattered Clouds
8:52 PM 57.0 °F 54.0 °F 89% 30.00 in 7.0 mi SSW 3.5 mph - N/A   Scattered Clouds
9:52 PM 54.0 °F 52.0 °F 93% 30.01 in 5.0 mi Calm Calm - N/A   Scattered Clouds
10:50 PM 53.6 °F 51.8 °F 94% 29.99 in 6.0 mi Calm Calm - N/A   Mostly Cloudy
10:52 PM 54.0 °F 52.0 °F 93% 29.99 in 6.0 mi Calm Calm - N/A   Mostly Cloudy
11:09 PM 53.6 °F 51.8 °F 94% 30.00 in 6.0 mi Calm Calm - N/A   Mostly Cloudy
11:40 PM 55.4 °F 53.6 °F 94% 29.99 in 6.0 mi Calm Calm - N/A   Overcast
11:52 PM 55.0 °F 52.0 °F 89% 29.99 in 6.0 mi Calm Calm - N/A   Mostly Cloudy